[[{"header":{"parameterUnit":"m.s-1","parameterCategory":1,"la1":30.2992,"la2":30.254,"lo1":-89.0895,"lo2":-89.0443,"dy":0.0025,"dx":0.0025,"nx":19,"ny":19,"refTime":"2026-03-30T09:00:00:Z","depth":0,"parameterNumber":2,"parameterNumberName":"U-component_of_WINDS"},"data":[0,0,0,-4.0469,-4.0469,-4.0441,-4.0441,-4.0418,-4.0418,0,0,0,0,0,0,0,0,0,0,0,-4.0485,-4.0485,-4.0469,-4.0469,-4.0441,-4.0441,-4.0418,-4.0418,0,0,0,0,0,0,0,0,0,0,0,-4.0485,-4.0485,-4.0485,-4.0468,-4.0441,-4.0441,-4.0418,-4.0434,0,0,0,0,0,0,0,0,0,0,-4.0458,-4.048,-4.0485,-4.0485,-4.0468,-4.0441,-4.0441,-4.0435,-4.0433,-4.0435,0,-4.044,0,-4.0428,-4.0417,-4.0417,0,0,0,-4.0463,-4.0482,-4.0468,-4.0485,-4.0468,-4.0441,-4.0452,-4.0434,-4.0432,-4.0433,-4.0439,-4.0438,-4.0428,-4.0417,-4.0417,-4.0451,-4.0451,0,0,-4.0464,-4.0483,-4.0469,-4.0467,-4.0473,-4.0453,-4.0451,-4.0432,-4.044,-4.0439,-4.0437,-4.0428,-4.0417,-4.0417,-4.0451,-4.0451,0,0,0,-4.0472,-4.0485,-4.0471,-4.0468,-4.0463,-4.0452,-4.045,-4.0441,-4.0435,-4.0437,-4.0427,-4.0417,-4.0416,-4.045,-4.0451,-4.049,0,0,0,-4.0473,-4.049,-4.0472,-4.0483,-4.0463,-4.0451,-4.0459,-4.0436,-4.0433,-4.0428,-4.0417,-4.0416,-4.0449,-4.045,-4.0488,-4.0504,0,0,0,-4.0484,-4.0491,-4.0489,-4.0484,-4.0474,-4.0451,-4.0444,-4.0435,-4.0428,-4.0417,-4.0416,-4.0449,-4.045,-4.0486,-4.0501,-4.0518,0,0,0,-4.05,-4.0525,-4.049,-4.0514,-4.0474,-4.0477,-4.0444,-4.0445,-4.044,-4.0416,-4.045,-4.0451,-4.0485,-4.0499,-4.0516,-4.0534,-4.0544,0,0,-4.0541,-4.053,-4.0543,-4.0511,-4.0525,-4.048,-4.0499,-4.0476,-4.0457,-4.0454,-4.0455,-4.0489,-4.0501,-4.0518,-4.0597,-4.0605,0,0,0,-4.0562,-4.0571,-4.0571,-4.0568,-4.0553,-4.054,-4.0513,-4.0504,-4.0501,-4.046,-4.05,-4.0507,-4.0516,-4.0523,-4.053,-4.0535,-4.0456,-4.0456,-4.0455,-4.0646,-4.0622,-4.0641,-4.0614,-4.0612,-4.0584,-4.058,-4.0564,-4.054,-4.055,-4.0547,-4.0599,-4.0608,-4.0613,-4.062,-4.0557,-4.0557,-4.0558,-4.0558,-4.0702,-4.071,-4.0679,-4.0686,-4.0661,-4.0666,-4.0642,-4.0624,-4.0625,-4.0598,-4.0605,-4.0575,-4.0623,-4.0627,-4.056,-4.056,-4.056,-4.0559,-4.0559,-4.0752,-4.0751,-4.0742,-4.0737,-4.0735,-4.0708,-4.071,-4.0687,-4.0666,-4.0673,-4.0667,-4.0666,-4.066,-4.0672,-4.0672,-4.0673,-4.0673,-4.0673,-4.0673,-4.0805,-4.0794,-4.0799,-4.0787,-4.0782,-4.0774,-4.0749,-4.0743,-4.0732,-4.0714,-4.0714,-4.0688,-4.0633,-4.0618,-4.0675,-4.0675,-4.0675,-4.0674,-4.0674,-4.0866,-4.0849,-4.0857,-4.0853,-4.0837,-4.0836,-4.0809,-4.0801,-4.0793,-4.0795,-4.0769,-4.0733,-4.0719,-4.0713,-4.0701,-4.0775,-4.0775,-4.0775,-4.0775,-4.0906,-4.0898,-4.0901,-4.0896,-4.0889,-4.0865,-4.0874,-4.0856,-4.0834,-4.0828,-4.0814,-4.0797,-4.0792,-4.0781,-4.0774,-4.0761,-4.085,-4.085,-4.085,-4.0941,-4.0932,-4.0944,-4.0923,-4.0909,-4.0897,-4.0905,-4.09,-4.0872,-4.0852,-4.0822,-4.0819,-4.079,-4.0783,-4.0759,-4.0749,-4.0725,0,0]},{"header":{"parameterUnit":"m.s-1","parameterCategory":1,"la1":30.2992,"la2":30.254,"lo1":-89.0895,"lo2":-89.0443,"dy":0.0025,"dx":0.0025,"nx":19,"ny":19,"refTime":"2026-03-30T09:00:00:Z","depth":0,"parameterNumber":3,"parameterNumberName":"V-component_of_WINDS"},"data":[0,0,0,3.5992,3.5994,3.6133,3.6134,3.6274,3.6275,0,0,0,0,0,0,0,0,0,0,0,3.5931,3.5932,3.5992,3.5995,3.6133,3.6134,3.6274,3.6275,0,0,0,0,0,0,0,0,0,0,0,3.5931,3.5932,3.5932,3.5995,3.6133,3.6134,3.6274,3.6181,0,0,0,0,0,0,0,0,0,0,3.6053,3.5979,3.5932,3.5932,3.5996,3.6133,3.6134,3.6178,3.6187,3.6197,0,3.6202,0,3.6241,3.6282,3.6283,0,0,0,3.6008,3.5971,3.6026,3.5932,3.5997,3.6132,3.6074,3.6183,3.6194,3.6209,3.6205,3.6211,3.6243,3.6283,3.6284,3.6301,3.6301,0,0,3.6,3.5945,3.6019,3.6032,3.6012,3.607,3.6078,3.619,3.6181,3.6205,3.6215,3.6246,3.6284,3.6285,3.6302,3.6301,0,0,0,3.5969,3.5939,3.5993,3.6026,3.6054,3.6073,3.6084,3.6176,3.6198,3.6216,3.6247,3.6284,3.6286,3.6303,3.6302,3.6223,0,0,0,3.5966,3.5921,3.5988,3.5956,3.6051,3.6117,3.6065,3.619,3.6205,3.6247,3.6284,3.6287,3.6303,3.6302,3.6226,3.6194,0,0,0,3.5929,3.5917,3.5931,3.5952,3.6011,3.6117,3.6146,3.6195,3.6223,3.6283,3.6287,3.6304,3.6302,3.623,3.6199,3.6184,0,0,0,3.5873,3.5856,3.5929,3.5921,3.6009,3.6068,3.6146,3.6191,3.6233,3.6285,3.6303,3.6302,3.6231,3.6203,3.6187,3.6161,3.6145,0,0,3.582,3.5847,3.5848,3.5917,3.5949,3.6051,3.6071,3.616,3.6214,3.6268,3.6269,3.6225,3.62,3.6184,3.6075,3.6062,0,0,0,3.5812,3.5811,3.5832,3.5872,3.5942,3.6,3.6092,3.6126,3.6176,3.6232,3.6217,3.6203,3.6197,3.6187,3.6176,3.6174,3.6295,3.6295,3.6295,3.5656,3.5731,3.5736,3.5828,3.5865,3.5963,3.5999,3.606,3.6121,3.6116,3.6133,3.6058,3.6044,3.6036,3.6033,3.6125,3.6125,3.6125,3.6124,3.5586,3.5597,3.5683,3.572,3.5798,3.5828,3.5921,3.5964,3.6002,3.6051,3.6048,3.6095,3.602,3.6021,3.6119,3.612,3.6121,3.6121,3.6122,3.5492,3.5511,3.5555,3.5622,3.5664,3.5757,3.5791,3.586,3.5924,3.5922,3.5948,3.5949,3.5959,3.593,3.5929,3.5929,3.5929,3.5929,3.5929,3.5377,3.543,3.5452,3.5528,3.5564,3.562,3.5719,3.5755,3.5812,3.5859,3.586,3.5921,3.5999,3.6018,3.5925,3.5925,3.5926,3.5926,3.5927,3.5279,3.5313,3.5347,3.5384,3.548,3.5518,3.5607,3.5675,3.5714,3.5729,3.5792,3.5839,3.587,3.5879,3.5895,3.5776,3.5776,3.5776,3.5776,3.52,3.5224,3.5277,3.5331,3.5391,3.5476,3.551,3.5587,3.5671,3.57,3.5728,3.5754,3.5761,3.5788,3.58,3.5815,3.5679,3.5679,3.5679,3.5144,3.5178,3.5195,3.5283,3.5363,3.543,3.5465,3.5521,3.5623,3.5676,3.5725,3.5729,3.5773,3.5783,3.5836,3.5852,3.5882,0,0]}]]